Weather History for Page, AZ

Change the Weather History Date:

Thursday, February 28, 2013

  Actual Average Record
Temperature  
Mean Temperature 39 °F -  
Max Temperature 52 °F 54 °F 66 °F (1972)
Min Temperature 26 °F 33 °F 11 °F (1962)
Degree Days  
Heating Degree Days 26    
Moisture  
Dew Point 5 °F    
Average Humidity 24    
Maximum Humidity 39    
Minimum Humidity 6    
Precipitation  
Precipitation 0.00 in - - ()
Sea Level Pressure  
Sea Level Pressure 30.39 in    
Wind  
Wind Speed 2 mph (ENE)    
Max Wind Speed 7 mph    
Max Gust Speed -    
Visibility 10 miles    
Events      
Averages and records for this station are not official NWS values.
T = Trace of Precipitation, MM = Missing Value Source: NWS Daily Summary

Daily Weather History Graph

Daily Weather History Graph

Search for Another Location

Airport:

Trip Planner

Search our weather history database for the weather conditions in past years. The results will help you decide how hot, cold, wet, or windy it might be!

Date:

Astronomy

Feb. 28, 2013 Rise Set
Actual Time 6:57 AM MST 6:19 PM MST
Civil Twilight 6:31 AM MST 6:45 PM MST
Nautical Twilight 6:01 AM MST 7:15 PM MST
Astronomical Twilight 5:31 AM MST 7:45 PM MST
Moon 9:43 PM MST 8:15 AM MST
Length of Visible Light 12h 13m
Length of Day
11h 21m
Waning Gibbous, 90% of the Moon is Illuminated
Feb 28
Waning Gibbous
Mar 4
Last Quarter
Mar 11
New
Mar 19
First Quarter
Mar 27
Full

Hourly Weather History & Observations

Time (MST) Temp. Windchill Dew Point Humidity Pressure Visibility Wind Dir Wind Speed Gust Speed Precip Events Conditions
12:53 AM 30.9 °F - 3.9 °F 32% 30.34 in 9.0 mi Calm Calm - N/A   Clear
1:53 AM 30.0 °F - 3.0 °F 32% 30.36 in 8.0 mi Calm Calm - N/A   Clear
2:53 AM 28.9 °F 23.9 °F 3.0 °F 33% 30.39 in 10.0 mi SSE 4.6 mph - N/A   Clear
3:53 AM 28.9 °F 23.9 °F 3.0 °F 33% 30.37 in 10.0 mi SSE 4.6 mph - N/A   Clear
4:53 AM 28.9 °F - 3.9 °F 35% 30.39 in 10.0 mi Calm Calm - N/A   Clear
5:53 AM 26.1 °F 20.5 °F 3.9 °F 39% 30.41 in 10.0 mi ESE 4.6 mph - N/A   Clear
6:53 AM 28.0 °F - 5.0 °F 38% 30.40 in 10.0 mi Calm Calm - N/A   Clear
7:53 AM 30.0 °F 25.2 °F 7.0 °F 38% 30.44 in 10.0 mi NW 4.6 mph - N/A   Clear
8:53 AM 35.1 °F - 7.0 °F 31% 30.44 in 10.0 mi Calm Calm - N/A   Clear
9:53 AM 37.9 °F - 6.1 °F 27% 30.44 in 10.0 mi Calm Calm - N/A   Clear
10:53 AM 41.0 °F 39.0 °F 7.0 °F 25% 30.45 in 10.0 mi East 3.5 mph - N/A   Clear
11:53 AM 44.1 °F 41.5 °F 7.0 °F 22% 30.44 in 10.0 mi North 4.6 mph - N/A   Clear
12:53 PM 46.9 °F - 3.9 °F 17% 30.42 in 10.0 mi Variable 3.5 mph - N/A   Clear
1:53 PM - - - N/A% 30.38 in - North - - N/A   Unknown
2:53 PM 51.1 °F - 3.0 °F 14% 30.36 in 10.0 mi NE 4.6 mph - N/A   Clear
3:53 PM 51.1 °F - 3.9 °F 15% 30.35 in 10.0 mi NNE 6.9 mph - N/A   Clear
4:53 PM 52.0 °F - 3.9 °F 14% 30.33 in 10.0 mi NE 5.8 mph - N/A   Clear
5:53 PM 50.0 °F - 3.2 °F 15% 30.35 in 10.0 mi North 6.9 mph - N/A   Clear
6:53 PM 46.9 °F - 1.9 °F 16% 30.36 in 10.0 mi North 4.6 mph - N/A   Clear
7:53 PM 43.0 °F - 3.9 °F 20% 30.39 in 10.0 mi Calm Calm - N/A   Clear
8:53 PM 42.1 °F - 6.1 °F 23% 30.39 in 8.0 mi Calm Calm - N/A   Clear
9:53 PM 39.9 °F 37.8 °F 6.1 °F 25% 30.40 in 5.0 mi WSW 3.5 mph - N/A   Haze
10:53 PM 39.9 °F 37.8 °F 5.0 °F 23% 30.41 in 10.0 mi SSE 3.5 mph - N/A   Clear
11:53 PM 37.0 °F - 5.0 °F 26% 30.41 in 10.0 mi Calm Calm - N/A   Clear